KY4JDC Weather Reports


time (UTC)temp
C
wind
direction
speed
KPH
gust
KPH
rain 1hr
cm
rain 24hr
cm
rain mn
cm
humidity
%
barometer
mb
20260505102137 17 151 1.6 3.2 0.00 0.00 0.00 63 1010.0
20260505101635 17 161 1.6 1.6 0.00 0.00 0.00 63 1009.8
20260505101131 17 145 1.6 4.8 0.00 0.00 0.00 63 1009.9
20260505100627 17 108 0.0 1.6 0.00 0.00 0.00 63 1009.9
20260505100124 17 159 3.2 3.2 0.00 0.00 0.00 63 1009.9
20260505095620 17 171 1.6 3.2 0.00 0.00 0.00 63 1010.0
20260505095117 17 138 1.6 3.2 0.00 0.00 0.00 63 1010.3
20260505094614 17 97 0.0 0.0 0.00 0.00 0.00 63 1010.3
20260505094110 17 122 1.6 1.6 0.00 0.00 0.00 63 1010.2
20260505093606 17 155 0.0 1.6 0.00 0.00 0.00 63 1010.2
20260505093104 17 176 0.0 1.6 0.00 0.00 0.00 62 1010.1
20260505092601 17 72 1.6 1.6 0.00 0.00 0.00 62 1010.2
20260505092100 17 94 0.0 3.2 0.00 0.00 0.00 62 1010.2
20260505091556 17 123 0.0 0.0 0.00 0.00 0.00 61 1010.3
20260505091055 17 124 1.6 1.6 0.00 0.00 0.00 61 1010.2
20260505090552 17 162 3.2 4.8 0.00 0.00 0.00 61 1010.3
20260505090050 17 188 0.0 1.6 0.00 0.00 0.00 61 1010.4
20260505085547 17 137 1.6 3.2 0.00 0.00 0.00 61 1010.4
20260505085045 17 133 0.0 1.6 0.00 0.00 0.00 61 1010.3
20260505084543 17 115 0.0 1.6 0.00 0.00 0.00 61 1010.6
20260505084041 17 286 3.2 3.2 0.00 0.00 0.00 61 1010.5
20260505083538 17 140 1.6 1.6 0.00 0.00 0.00 60 1010.4
20260505083034 17 134 1.6 1.6 0.00 0.00 0.00 60 1010.4
20260505082530 17 118 1.6 4.8 0.00 0.00 0.00 60 1010.3
20260505082027 17 195 1.6 4.8 0.00 0.00 0.00 60 1010.3
20260505081524 17 55 0.0 1.6 0.00 0.00 0.00 60 1010.3
20260505081021 17 131 1.6 3.2 0.00 0.00 0.00 60 1010.1
20260505080517 18 133 1.6 1.6 0.00 0.00 0.00 59 1010.0
20260505080014 18 164 1.6 3.2 0.00 0.00 0.00 59 1010.4
20260505075510 18 127 1.6 3.2 0.00 0.00 0.00 59 1010.3
20260505075007 18 139 1.6 4.8 0.00 0.00 0.00 58 1010.4
20260505074504 18 109 1.6 1.6 0.00 0.00 0.00 59 1010.2
20260505074001 18 89 0.0 3.2 0.00 0.00 0.00 58 1009.9
20260505073459 18 127 0.0 1.6 0.00 0.00 0.00 58 1010.1
20260505072956 18 160 1.6 4.8 0.00 0.00 0.00 57 1009.9
20260505072452 18 127 1.6 3.2 0.00 0.00 0.00 57 1009.9
20260505071948 18 159 1.6 3.2 0.00 0.00 0.00 57 1009.8
20260505071444 18 137 4.8 6.4 0.00 0.00 0.00 56 1009.8
20260505070942 18 107 6.4 9.7 0.00 0.00 0.00 56 1009.8
20260505070439 18 146 1.6 9.7 0.00 0.00 0.00 56 1010.0
20260505065934 18 107 1.6 6.4 0.00 0.00 0.00 56 1010.0
20260505065431 18 105 0.0 9.7 0.00 0.00 0.00 56 1010.2
20260505064928 18 170 1.6 6.4 0.00 0.00 0.00 55 1010.1
20260505064425 18 163 3.2 4.8 0.00 0.00 0.00 55 1010.0
20260505063923 18 138 1.6 3.2 0.00 0.00 0.00 56 1010.2
20260505063419 18 108 1.6 3.2 0.00 0.00 0.00 55 1010.4
20260505062916 19 157 1.6 3.2 0.00 0.00 0.00 55 1010.2
20260505062413 19 144 1.6 9.7 0.00 0.00 0.00 55 1010.1
20260505061910 19 339 0.0 3.2 0.00 0.00 0.00 54 1009.9
20260505061408 19 75 3.2 9.7 0.00 0.00 0.00 54 1009.8
20260505060905 19 223 1.6 12.9 0.00 0.00 0.00 54 1009.9
20260505060402 19 105 1.6 6.4 0.00 0.00 0.00 54 1009.9
20260505055858 19 132 3.2 14.5 0.00 0.00 0.00 54 1010.0
20260505055354 19 237 3.2 9.7 0.00 0.00 0.00 54 1010.3
20260505054851 19 163 4.8 6.4 0.00 0.00 0.00 54 1010.3
20260505054348 19 153 3.2 11.3 0.00 0.00 0.00 54 1010.2
20260505053847 19 196 1.6 4.8 0.00 0.00 0.00 54 1010.4
20260505053344 19 266 1.6 6.4 0.00 0.00 0.00 53 1010.4
20260505052840 19 272 3.2 11.3 0.00 0.00 0.00 54 1010.5
20260505052337 19 169 6.4 12.9 0.00 0.00 0.00 53 1010.4
20260505051834 18 131 3.2 9.7 0.00 0.00 0.00 54 1010.3
20260505051331 18 353 1.6 9.7 0.00 0.00 0.00 54 1010.6
20260505050830 18 133 8.0 11.3 0.00 0.00 0.00 54 1010.5
20260505050328 19 146 1.6 4.8 0.00 0.00 0.00 54 1010.6
20260505041758 20 134 3.2 9.7 0.00 0.00 0.00 51 1010.4
20260505041255 20 136 3.2 4.8 0.00 0.00 0.00 51 1010.5
20260505040752 20 145 3.2 3.2 0.00 0.00 0.00 50 1010.6
20260505040250 20 142 3.2 3.2 0.00 0.00 0.00 50 1010.8
20260505035746 20 127 0.0 1.6 0.00 0.00 0.00 49 1010.8
20260505035242 21 243 0.0 0.0 0.00 0.00 0.00 48 1010.8
20260505034739 21 119 1.6 1.6 0.00 0.00 0.00 47 1010.5
20260505034236 21 128 0.0 3.2 0.00 0.00 0.00 47 1010.7
20260505033732 21 136 0.0 4.8 0.00 0.00 0.00 46 1010.8
20260505033231 21 2 0.0 4.8 0.00 0.00 0.00 46 1010.7
20260505032728 21 164 3.2 3.2 0.00 0.00 0.00 46 1010.7
20260505032224 21 134 1.6 3.2 0.00 0.00 0.00 45 1010.8
20260505031722 21 123 1.6 1.6 0.00 0.00 0.00 45 1010.7
20260505031218 21 146 0.0 3.2 0.00 0.00 0.00 45 1010.4
20260505030715 21 213 0.0 9.7 0.00 0.00 0.00 45 1010.7
20260505030211 21 167 1.6 6.4 0.00 0.00 0.00 44 1010.5
20260505025707 21 87 0.0 4.8 0.00 0.00 0.00 44 1010.4
20260505025205 21 4 1.6 9.7 0.00 0.00 0.00 44 1010.3
20260505024703 22 5 3.2 4.8 0.00 0.00 0.00 44 1010.4
20260505024200 22 119 0.0 3.2 0.00 0.00 0.00 43 1010.0
20260505023657 22 123 4.8 9.7 0.00 0.00 0.00 43 1010.2
20260505023154 22 160 3.2 6.4 0.00 0.00 0.00 43 1010.2
20260505022652 22 37 3.2 9.7 0.00 0.00 0.00 43 1010.1
20260505022149 22 186 1.6 11.3 0.00 0.00 0.00 42 1010.0
20260505021645 22 110 1.6 4.8 0.00 0.00 0.00 43 1009.8
20260505021142 22 94 1.6 4.8 0.00 0.00 0.00 42 1010.0
20260505020638 22 258 4.8 11.3 0.00 0.00 0.00 42 1009.8
20260505020134 22 58 1.6 9.7 0.00 0.00 0.00 42 1009.8
20260505015631 22 124 1.6 9.7 0.00 0.00 0.00 42 1009.5
20260505015128 22 57 1.6 12.9 0.00 0.00 0.00 42 1009.6
20260505014624 22 277 3.2 11.3 0.00 0.00 0.00 41 1009.3
20260505014121 22 314 3.2 4.8 0.00 0.00 0.00 41 1009.2
20260505013619 22 196 3.2 4.8 0.00 0.00 0.00 41 1009.2
20260505013116 22 212 3.2 6.4 0.00 0.00 0.00 41 1009.5
20260505012615 22 219 3.2 12.9 0.00 0.00 0.00 41 1009.4
20260505012111 22 131 0.0 9.7 0.00 0.00 0.00 41 1009.1
20260505011606 22 156 1.6 9.7 0.00 0.00 0.00 41 1009.2
20260505011104 22 118 1.6 1.6 0.00 0.00 0.00 40 1009.2
20260505010605 23 140 3.2 6.4 0.00 0.00 0.00 40 1009.0
20260505005558 23 146 1.6 3.2 0.00 0.00 0.00 39 1009.1
20260505005055 23 107 1.6 3.2 0.00 0.00 0.00 38 1009.0
20260505004552 23 163 4.8 11.3 0.00 0.00 0.00 38 1009.0
20260505004049 23 107 3.2 4.8 0.00 0.00 0.00 38 1009.0
20260505003546 23 88 3.2 6.4 0.00 0.00 0.00 38 1009.0
20260505003043 23 146 6.4 9.7 0.00 0.00 0.00 37 1009.2
20260505002538 24 36 3.2 9.7 0.00 0.00 0.00 37 1009.2
20260505002037 24 318 8.0 12.9 0.00 0.00 0.00 37 1009.2
20260505001534 24 131 1.6 14.5 0.00 0.00 0.00 37 1009.2
20260505001031 24 271 0.0 6.4 0.00 0.00 0.00 37 1009.4
20260505000529 24 65 1.6 11.3 0.00 0.00 0.00 37 1009.2
20260505000026 25 143 8.0 12.9 0.00 0.00 0.00 36 1009.2
20260504235523 25 122 3.2 6.4 0.00 0.00 0.00 35 1009.3
20260504235019 25 200 4.8 4.8 0.00 0.00 0.00 35 1009.5
20260504234517 25 135 1.6 9.7 0.00 0.00 0.00 36 1009.3
20260504234014 25 115 0.0 9.7 0.00 0.00 0.00 36 1009.3
20260504233508 25 121 1.6 12.9 0.00 0.00 0.00 35 1009.5
20260504233006 25 190 1.6 9.7 0.00 0.00 0.00 34 1009.5
20260504232503 26 148 11.3 14.5 0.00 0.00 0.00 33 1009.6
20260504232000 26 182 4.8 9.7 0.00 0.00 0.00 35 1009.7
20260504231456 26 76 1.6 6.4 0.00 0.00 0.00 34 1010.0
20260504230953 26 346 1.6 6.4 0.00 0.00 0.00 34 1009.9
20260504230449 26 238 4.8 11.3 0.00 0.00 0.00 33 1009.9
20260504225949 26 102 0.0 6.4 0.00 0.00 0.00 34 1009.6
20260504225445 26 115 3.2 12.9 0.00 0.00 0.00 33 1010.0
20260504224942 26 266 3.2 6.4 0.00 0.00 0.00 34 1010.0
20260504224438 26 154 3.2 11.3 0.00 0.00 0.00 33 1010.1
20260504223936 26 285 3.2 9.7 0.00 0.00 0.00 34 1010.3
20260504223431 26 77 8.0 14.5 0.00 0.00 0.00 32 1010.1
20260504222927 26 123 1.6 6.4 0.00 0.00 0.00 33 1010.2
20260504222425 26 275 4.8 11.3 0.00 0.00 0.00 33 1010.2
20260504221923 26 310 6.4 11.3 0.00 0.00 0.00 32 1010.4
20260504221419 26 117 6.4 12.9 0.00 0.00 0.00 31 1010.2
20260504220916 26 37 6.4 6.4 0.00 0.00 0.00 33 1010.3
20260504220413 26 212 3.2 24.1 0.00 0.00 0.00 34 1010.4
20260504215910 26 164 3.2 12.9 0.00 0.00 0.00 33 1010.3
20260504215407 26 62 6.4 14.5 0.00 0.00 0.00 33 1010.2
20260504214903 26 188 4.8 14.5 0.00 0.00 0.00 32 1010.4
20260504214400 26 245 3.2 11.3 0.00 0.00 0.00 34 1010.2
20260504213857 26 236 6.4 17.7 0.00 0.00 0.00 32 1010.3
20260504213352 26 168 1.6 9.7 0.00 0.00 0.00 33 1010.1
20260504212850 26 134 6.4 6.4 0.00 0.00 0.00 33 1010.1
20260504212346 26 42 3.2 16.1 0.00 0.00 0.00 32 1010.3
20260504211844 26 198 4.8 14.5 0.00 0.00 0.00 32 1010.3
20260504211340 26 227 9.7 25.7 0.00 0.00 0.00 31 1010.5
20260504210837 26 266 11.3 14.5 0.00 0.00 0.00 32 1010.1
20260504210334 26 138 1.6 22.5 0.00 0.00 0.00 32 1010.2
20260504205831 26 169 6.4 16.1 0.00 0.00 0.00 32 1010.4
20260504205329 27 182 1.6 14.5 0.00 0.00 0.00 34 1010.1
20260504204827 26 271 4.8 14.5 0.00 0.00 0.00 33 1010.1
20260504204325 27 156 4.8 24.1 0.00 0.00 0.00 33 1010.1
20260504203824 27 90 4.8 9.7 0.00 0.00 0.00 34 1010.1
20260504203321 26 133 4.8 12.9 0.00 0.00 0.00 34 1010.1
20260504202816 27 206 6.4 16.1 0.00 0.00 0.00 34 1009.9
20260504202314 27 152 11.3 17.7 0.00 0.00 0.00 34 1010.1
20260504201810 27 312 4.8 12.9 0.00 0.00 0.00 33 1010.1
20260504201308 27 245 3.2 9.7 0.00 0.00 0.00 33 1010.2
20260504200805 27 308 8.0 12.9 0.00 0.00 0.00 33 1010.2
20260504200301 27 294 11.3 12.9 0.00 0.00 0.00 32 1010.4
20260504195758 26 28 3.2 14.5 0.00 0.00 0.00 33 1010.3
20260504195254 26 289 9.7 16.1 0.00 0.00 0.00 31 1010.1
20260504194751 26 219 3.2 17.7 0.00 0.00 0.00 34 1010.6
20260504194247 26 143 6.4 20.9 0.00 0.00 0.00 34 1010.5
20260504193743 27 231 1.6 14.5 0.00 0.00 0.00 34 1010.3
20260504193240 27 130 6.4 25.7 0.00 0.00 0.00 33 1010.6
20260504192739 27 305 8.0 16.1 0.00 0.00 0.00 33 1010.7
20260504180547 26 172 8.0 20.9 0.00 0.00 0.00 37 1011.7
20260504180046 26 172 8.0 20.9 0.00 0.00 0.00 37 1011.7
20260504175542 27 193 6.4 12.9 0.00 0.00 0.00 37 1011.7
20260504175039 26 130 4.8 6.4 0.00 0.00 0.00 37 1011.9
20260504174537 26 134 1.6 11.3 0.00 0.00 0.00 39 1011.9
20260504174034 26 122 3.2 9.7 0.00 0.00 0.00 38 1012.1
20260504173531 26 226 3.2 25.7 0.00 0.00 0.00 37 1012.2
20260504173028 26 142 6.4 12.9 0.00 0.00 0.00 37 1012.1
20260504172524 26 297 4.8 17.7 0.00 0.00 0.00 38 1012.2
20260504172021 26 357 1.6 4.8 0.00 0.00 0.00 39 1012.4
20260504171518 26 290 6.4 22.5 0.00 0.00 0.00 37 1012.3
20260504171015 26 277 9.7 14.5 0.00 0.00 0.00 35 1012.3
20260504170510 25 23 1.6 14.5 0.00 0.00 0.00 40 1012.2
20260504160431 25 279 4.8 11.3 0.00 0.00 0.00 43 1013.0
20260504150854 22 122 0.0 4.8 0.00 0.00 0.00 52 1013.3
20260504150351 22 118 6.4 6.4 0.00 0.00 0.00 51 1013.3
20260504141321 20 294 8.0 11.3 0.00 0.00 0.00 56 1013.4
20260504140817 20 266 6.4 9.7 0.00 0.00 0.00 57 1013.3
20260504140313 20 287 3.2 3.2 0.00 0.00 0.00 59 1013.5
20260504130742 17 109 6.4 9.7 0.00 0.00 0.00 62 1013.7
20260504130238 17 338 3.2 6.4 0.00 0.00 0.00 62 1013.7
20260504120202 15 136 4.8 9.7 0.00 0.00 0.00 63 1013.3
20260504110629 15 298 0.0 4.8 0.00 0.00 0.00 62 1013.0
20260504110125 15 105 0.0 3.2 0.00 0.00 0.00 62 1012.8